Location: *
(50.2516°N, 19.0191°E)
Time: 10:44:40
(UTC+00:00)

Daily predictions for brighter satellites

Satellite Brightness Start Highest point End
(mag) Time Altitude Azimuth Time Altitude Azimuth Time Altitude Azimuth
Cosmos 1315 Rocket 4.1 18:20:53 10° NNW 18:24:52 46° W 18:28:49 10° S
Spot 2 Rocket 4.4 18:20:26 10° ESE 18:24:54 32° ENE 18:29:22 10° N
Okean 1-7 3.3 18:20:39 10° NNW 18:25:05 75° W 18:29:28 10° S
Cosmos 2221 Rocket 3.7 18:20:45 10° N 18:25:07 56° ENE 18:29:27 10° SSE
SPOT 3 Rocket 3.7 18:20:13 10° SSE 18:25:25 82° WSW 18:30:37 10° NNW
CZ-2C R/B 3.9 18:22:17 10° NNE 18:27:03 88° WNW 18:31:42 10° SSW
BREEZE-M DEB (TANK) 1.8 18:25:00 10° W 18:27:41 65° S 18:29:50 10° ESE
Unknown 4.4 18:24:55 10° WNW 18:28:54 46° SSW 18:32:52 10° SE
Unknown 4.4 18:26:34 10° WNW 18:30:32 45° SSW 18:34:30 10° SE
Abrixas rocket 3.4 18:28:19 10° SSW 18:30:45 22° SSE 18:33:13 10° E
Unknown 4.4 18:28:13 10° WNW 18:32:11 44° SSW 18:36:07 10° SE
Unknown 4.5 18:29:53 10° WNW 18:33:50 43° SW 18:37:46 10° SE
USA 234 3.9 18:28:19 10° SSE 18:34:41 52° SW 18:41:05 10° WNW
Cosmos 44 3.5 18:30:27 10° NW 18:34:55 59° SW 18:39:11 10° SSE
Unknown 4.5 18:31:34 10° WNW 18:35:30 42° SW 18:39:25 10° SE
Meteor 1-18 Rocket 4.3 18:32:07 10° NNW 18:37:45 87° E 18:43:27 10° SSE
RESURS DK-1 3.1 18:33:42 10° SW 18:37:49 58° NW 18:41:57 10° NNE
CZ-2C R/B 3.2 18:34:44 10° SE 18:39:17 49° ENE 18:43:56 10° N
Meteor 2-19 Rocket 4.5 18:33:34 10° N 18:39:45 73° ENE 18:45:51 10° SSE
Resurs 1-3 3.6 18:35:39 10° SSE 18:40:00 74° ENE 18:44:25 10° N
EXPRESS MD2 3.2 18:42:15 10° W 18:47:36 77° SSW 18:50:15 12° ESE
SL-24 R/B 4.4 18:45:32 10° SSE 18:50:09 57° ENE 18:54:28 10° N
Okean 3 3.5 18:47:19 10° N 18:51:30 64° ENE 18:55:39 10° SSE
Terra 3.7 18:55:49 10° E 18:58:39 16° NE 19:01:31 10° NNE
Cosmos 1777 Rocket 4.1 18:57:52 10° SSW 19:03:08 82° WNW 19:08:29 10° NNE
Cosmos 2082 Rocket 4.0 19:05:06 11° E 19:05:31 11° E 19:06:58 10° E
Aureole 3 Rocket 3.6 19:04:04 14° SE 19:06:26 26° E 19:09:11 10° NE
Cosmos 1833 Rocket 4.2 19:05:40 14° ESE 19:07:27 16° E 19:10:51 10° ENE
Meteor 1-14 Rocket 4.5 19:01:41 10° SSW 19:07:40 82° WNW 19:13:38 10° N
Resurs 01 Rocket 1.8 19:03:48 10° S 19:08:12 77° WSW 19:12:38 10° NNW
SJ 16-02 2.9 19:08:05 16° ESE 19:09:11 17° E 19:12:02 10° NE
Cosmos 923 Rocket 4.1 19:04:10 10° NNW 19:09:33 85° WSW 19:14:40 11° SSE
H-2A R/B 2.7 19:05:03 10° S 19:09:58 53° W 19:14:50 10° NNW
Cosmos 1515 3.7 19:06:21 10° N 19:10:08 62° ENE 19:13:16 14° SSE
Cosmos 1656 4.1 19:04:39 10° NNW 19:10:14 52° NE 19:14:32 17° SE
Aureole 2 4.0 19:07:19 10° SSW 19:10:20 84° WNW 19:13:18 10° NNE
Okean 1 4.3 19:07:00 10° NNW 19:10:49 46° W 19:14:38 10° SSW
Meteor 1-19 Rocket 4.5 19:05:57 10° NNW 19:11:38 75° W 19:17:25 10° S
SL-16 R/B 4.4 19:08:58 10° N 19:11:54 14° NNE 19:14:50 10° ENE
SPOT 5 4.0 19:11:30 15° ESE 19:13:56 24° ENE 19:17:27 10° N
MetOp-B 4.2 19:09:21 12° SSE 19:14:18 68° ENE 19:19:39 10° N
GENESIS II 4.4 19:10:36 10° SSW 19:14:29 51° SE 19:18:29 10° NE
Cosmos 1697 Rocket 3.5 19:11:27 10° NNW 19:16:47 39° NE 19:20:46 17° ESE
Cosmos 1898 Rocket 4.2 19:12:12 10° SSE 19:16:48 31° ESE 19:21:23 10° NE
USA 229 DEB 4.5 19:12:01 10° NW 19:18:51 47° NNE 19:25:09 13° ESE
Meteor 1-13 Rocket 4.2 19:15:44 10° N 19:21:22 75° ENE 19:26:27 14° SSE
Cosmos 1680 Rocket 3.5 19:16:21 10° NNW 19:21:39 86° WSW 19:25:59 15° SSE
Cosmos 44 Rocket 3.3 19:18:24 10° NW 19:23:14 80° SW 19:26:32 20° SSE
Cosmos 1386 Rocket 4.4 19:18:52 10° N 19:24:59 78° E 19:30:43 12° SSE
ADEOS Rocket 3.0 19:19:19 10° NNE 19:25:13 89° WNW 19:31:44 10° SSW
Meteor 2-21 4.5 19:21:13 10° N 19:27:23 70° ENE 19:32:31 15° SSE
Cosmos 1666 4.1 19:30:53 20° E 19:31:17 21° E 19:34:10 10° NE
CZ-2C R/B 2.9 19:27:32 10° NNE 19:32:36 47° E 19:36:46 15° SSE
Geosat 4.0 19:29:02 19° SSE 19:32:42 89° WSW 19:37:45 10° NNW
Cosmos 1378 Rocket 3.5 19:29:53 10° N 19:34:19 76° E 19:37:16 21° SSE
USA 245 4.0 19:32:30 20° SSE 19:35:46 74° ENE 19:41:27 10° N
COSMOS 2406 3.3 19:31:22 10° S 19:36:54 57° ESE 19:42:31 10° NE
Cosmos 1733 Rocket 3.2 19:33:12 10° SSW 19:37:31 73° W 19:41:52 10° N
CZ-4B DEB 4.3 19:36:40 27° SSE 19:38:25 84° ENE 19:41:51 10° NNW
Cosmos 1553 Rocket 4.2 19:32:17 10° SSW 19:38:32 77° W 19:44:57 10° N
Cosmos 1980 Rocket 3.2 19:34:01 10° NNW 19:39:09 35° NE 19:42:31 19° ESE
Cosmos 1674 Rocket 3.8 19:35:05 10° NNW 19:39:26 70° W 19:42:55 15° S
Cosmos 2098 Rocket 3.3 19:35:41 10° N 19:39:55 67° E 19:43:16 22° SSE
Aureole 2 Rocket 3.9 19:38:18 10° NW 19:40:29 22° WSW 19:42:05 14° SSW
USA 267 3.9 19:35:02 10° ENE 19:41:24 57° NNW 19:47:47 10° W
ERS-1 Rocket 3.1 19:38:32 24° SE 19:41:31 59° ENE 19:46:27 10° N
Meteor 2-21 Rocket 4.4 19:38:45 10° N 19:44:56 75° ENE 19:49:16 21° SSE
MTI 3.9 19:46:52 10° N 19:50:02 74° WNW 19:52:12 19° SSW
Cosmos 1536 2.8 19:48:21 25° S 19:50:34 65° E 19:54:37 10° NNE
Cosmos 1346 Rocket 3.6 19:51:20 30° E 19:51:31 30° E 19:54:56 10° NNE
Cosmos 2369 3.7 19:46:09 10° NNW 19:51:50 71° ENE 19:54:54 28° SE
DMSP B5D2-2 4.3 19:49:13 10° NNE 19:54:28 73° WNW 19:59:42 10° SSW
Cosmos 1709 Rocket 3.9 19:50:16 10° N 19:56:25 82° E 20:00:26 23° SSE
Cosmos 1975 Rocket 3.2 19:55:06 10° N 19:59:28 57° ENE 20:01:01 36° SE
Iridium 2 3.6 20:00:59 29° S 20:02:49 84° W 20:06:36 10° N
S3M 4.4 19:56:37 10° SSW 20:02:52 65° WNW 20:09:05 10° N
GP-B 3.4 19:59:16 10° N 20:03:42 67° W 20:06:53 18° SSW
Spot 2 Rocket 4.5 19:59:19 12° SSW 20:03:44 43° W 20:08:36 10° NNW
SPOT 1/Viking Rocket 3.5 20:01:43 28° SSE 20:04:36 89° E 20:09:52 10° NNW
Landsat 7 3.8 20:03:00 30° SSE 20:05:23 88° WSW 20:10:11 10° NNW
Cosmos 1937 Rocket 3.6 20:02:12 22° S 20:05:30 57° ESE 20:10:44 10° NNE
Abrixas rocket 2.6 20:03:19 10° WSW 20:05:46 44° SW 20:05:46 44° SW
Cosmos 1500 3.5 20:05:21 19° SSW 20:08:00 65° WNW 20:11:51 10° N
Cosmos 2315 Rocket 4.0 20:03:59 20° S 20:08:32 72° E 20:14:52 10° NNE
ASTEX 1 4.1 20:03:44 10° N 20:08:34 53° WNW 20:13:20 10° SSW
Cosmos 2184 Rocket 4.5 20:02:48 10° N 20:08:41 44° ENE 20:11:12 30° ESE
Cosmos 990 Rocket 3.9 20:04:32 13° SSW 20:09:11 74° ESE 20:14:23 10° NNE
Cosmos 158 Rocket 4.2 20:07:42 10° NNW 20:12:59 70° WSW 20:15:35 31° S
NOSS 3-1 (C) 4.1 20:06:12 10° NW 20:13:26 69° NE 20:18:23 26° ESE
Okean 2 3.8 20:10:23 10° N 20:14:21 44° ENE 20:14:56 41° E
USA 32 3.9 20:14:26 10° N 20:19:43 79° E 20:21:50 37° SSE
Cosmos 2298 Rocket 4.4 20:22:07 39° SE 20:22:55 42° ESE 20:27:55 10° NE
CARTOSAT-1 3.5 20:22:02 45° S 20:23:19 85° WSW 20:27:40 10° NNW
Cosmos 2360 4.2 20:19:18 10° NNW 20:25:01 75° ENE 20:27:09 40° SE
Meteor 2-8 Rocket 4.4 20:24:10 33° SSE 20:26:58 68° E 20:33:00 10° NNE
Cosmos 2322 Rocket 3.7 20:22:21 10° NNW 20:27:06 27° NE 20:29:59 18° E
Cosmos 1900 4.5 20:23:31 10° NW 20:28:31 65° WSW 20:29:58 43° S
Meteor 1-11 Rocket 4.4 20:22:50 10° SSW 20:28:39 58° WNW 20:34:34 10° N
MOS 1 Rocket 3.6 20:24:51 10° NNE 20:30:10 62° E 20:31:55 41° SSE
Cosmos 1340 2.5 20:30:15 72° ESE 20:30:20 72° E 20:34:06 10° NNE
EO 1 Del DPAF 3.5 20:29:25 10° N 20:33:11 64° WNW 20:34:26 38° SW
Cosmos 1908 Rocket 4.5 20:32:26 17° SW 20:35:38 47° WNW 20:39:59 10° N
Terra 1.7 20:34:26 49° SSE 20:35:46 88° WSW 20:40:33 10° NNW
Okean 2 Rocket 3.1 20:39:21 56° ESE 20:39:31 56° E 20:43:51 10° NNE
Helios 1A 4.2 20:39:32 28° ENE 20:39:50 28° ENE 20:43:25 10° N
Cosmos 1743 2.9 20:45:27 60° ENE 20:45:27 60° ENE 20:48:50 10° NNE
CZ-4C R/B 4.2 20:48:42 13° E 20:48:42 13° E 20:49:47 10° ENE
SJ 16-02 1.7 20:45:02 27° SW 20:47:17 62° WNW 20:51:42 10° NNE
Sich 1 Rocket 3.8 20:46:32 44° SSW 20:47:53 71° WNW 20:52:24 10° N
Cosmos 2082 Rocket 2.1 20:46:53 45° S 20:48:28 65° ESE 20:54:06 10° NE
Cosmos 2278 3.9 20:43:10 10° NW 20:48:46 62° WSW 20:50:29 42° S
Cosmos 1536 Rocket 3.7 20:44:27 10° N 20:48:51 57° ENE 20:49:05 56° E
Mayak 0.2 20:45:49 10° NE 20:48:26 25° ENE 20:48:26 25° ENE
Cosmos 1833 Rocket 2.6 20:47:16 26° SSW 20:50:34 89° ESE 20:56:15 10° NNE
SPOT 5 3.4 20:50:43 35° SW 20:51:50 42° W 20:55:59 10° NNW
Thor Agena Rocket 3.7 20:47:07 10° NNE 20:52:18 74° WNW 20:54:47 32° SSW
Cosmos 1048 Rocket 3.9 20:51:44 10° NNW 20:56:54 79° ENE 20:57:47 61° SE
Cosmos 1975 3.0 20:58:03 60° NE 20:58:03 60° NE 21:01:35 10° NNE
SL-16 R/B 3.0 20:52:12 10° NNW 20:57:37 43° NE 20:59:25 33° E
Cosmos 1610 Rocket 4.5 20:52:22 10° N 20:58:31 68° ENE 21:00:09 48° SE
Cosmos 1697 Rocket 3.4 20:55:29 10° NW 21:00:51 44° WSW 21:02:30 35° SSW
Meteor 1-21 4.2 20:55:45 10° N 21:01:25 70° ENE 21:02:35 54° SE
Cosmos 1867 3.8 20:56:23 10° NW 21:01:51 61° NE 21:03:16 45° E
IRAS Rocket 4.2 21:00:35 53° SE 21:01:56 74° ENE 21:07:33 10° NNW
SL-24 R/B 4.4 20:58:13 10° N 21:02:11 51° WNW 21:02:50 45° WSW
Spot 4 4.0 21:03:39 53° E 21:04:08 55° ENE 21:08:50 10° N
Cosmos 1025 Rocket 3.0 21:00:09 10° N 21:04:27 67° ENE 21:04:27 67° ENE
ALOS 2 4.0 21:05:11 26° ENE 21:05:24 26° ENE 21:09:05 10° N
Cosmos 1842 3.5 21:02:42 10° N 21:06:11 63° NNE 21:06:11 63° NNE
Cosmos 1666 4.0 21:05:46 32° WSW 21:06:40 36° WNW 21:10:15 10° N
BREEZE M DEB (TANK) 2.6 21:07:36 73° SSE 21:07:36 73° SSE 21:16:12 10° E
Cosmos 1269 Rocket 4.3 21:04:46 10° NNW 21:10:00 56° ENE 21:10:51 50° E
USA 229 DEB 3.9 21:03:04 10° NW 21:10:12 65° SW 21:12:34 44° S
USA 229 3.9 21:03:10 10° NW 21:10:19 66° SW 21:12:40 44° S
CZ-2C R/B 4.3 21:08:11 10° N 21:12:45 31° WNW 21:17:23 10° WSW
NOSS 3-1 (A) 4.0 21:06:15 10° NW 21:13:39 90° WSW 21:16:52 42° SE
Cosmos 2327 Rocket 4.5 21:09:34 10° N 21:16:03 84° W 21:17:51 51° S
Cosmos 2360 Rocket 3.5 21:12:56 10° NNW 21:17:55 31° NE 21:20:07 24° E
Cosmos 1125 Rocket 3.6 21:21:43 58° E 21:21:43 58° E 21:26:41 10° NNE
Cosmos 1707 4.1 21:18:51 10° N 21:21:36 31° NE 21:21:36 31° NE
Cosmos 2151 Rocket 3.5 21:22:46 84° WNW 21:22:46 84° WNW 21:27:14 10° N
Cosmos 1980 Rocket 2.5 21:17:56 10° NW 21:23:23 51° WSW 21:24:16 47° SW
USA 267 4.0 21:17:38 10° ENE 21:23:54 51° N 21:30:11 10° WNW
Cosmos 2219 Rocket 4.5 21:21:08 10° N 21:24:51 18° NNE 21:28:32 10° ENE
Cosmos 962 Rocket 4.4 21:23:22 10° N 21:29:30 69° ENE 21:30:37 57° SE
Cosmos 2154 Rocket 4.0 21:27:20 10° NNW 21:33:38 78° W 21:35:00 56° SSW
APEX 3.9 21:28:35 10° NNW 21:34:11 63° NE 21:34:25 62° ENE
ARGOS Delta rocket 4.1 21:33:53 64° SW 21:34:31 71° W 21:39:59 10° NNW
SL-27 R/B 4.0 21:37:38 34° NNE 21:37:38 34° NNE 21:39:51 10° NNE
Cosmos 494 Rocket 3.8 21:35:39 10° NNW 21:40:49 85° WSW 21:40:56 84° SSW
Nadezhda 1 Rocket 4.0 21:41:24 52° SSW 21:42:58 75° W 21:49:08 10° N
Meteor 2-15 Rocket 4.5 21:49:05 54° SW 21:50:29 73° WNW 21:56:37 10° N
Okean 1 Rocket 3.4 21:51:22 61° NNE 21:51:22 61° NNE 21:55:00 10° NNE
Cosmos 2251 Rocket 4.2 21:51:10 10° NNW 21:56:17 44° ENE 21:57:03 41° E
Nimbus 7 Rocket 4.4 21:53:00 10° NNE 21:59:07 87° WNW 22:00:09 64° SSW
ATLAS 2AS CENTAUR R/B 4.4 21:55:01 10° NW 22:02:15 35° NNE 22:09:04 10° E
Cosmos 2333 Rocket 3.8 22:01:14 10° NNW 22:06:04 28° NE 22:09:00 18° E
Lacrosse 4 Rocket 3.0 22:05:02 10° NNW 22:08:42 28° NE 22:09:00 28° NE
Helios 1B rocket 3.4 22:05:09 10° NNE 22:08:01 41° NE 22:08:01 41° NE
Cosmos 2322 Rocket 2.1 22:06:05 10° NNW 22:11:44 73° WSW 22:11:46 73° WSW
Cosmos 2341 Rocket 4.1 22:06:52 10° NNW 22:13:11 67° W 22:14:08 59° SW
Terra 4.2 22:13:19 12° W 22:14:13 13° W 22:16:21 10° WNW
ERS-2 3.9 22:15:33 29° NNE 22:15:33 29° NNE 22:17:51 10° N
Helios 1A 4.4 22:16:09 31° WNW 22:16:09 31° WNW 22:19:09 10° NNW
Okean 1-7 Rocket 4.0 22:12:59 10° N 22:16:36 59° N 22:16:36 59° N
Cosmos 2366 rocket 3.8 22:14:25 10° N 22:20:42 84° E 22:21:26 71° SSE
Aureole 3 4.4 22:20:19 69° SSE 22:21:01 78° E 22:28:13 10° NNE
Cosmos 389 Rocket 4.4 22:20:00 10° N 22:21:59 29° N 22:21:59 29° N
Mayak 0.1 22:21:19 10° N 22:25:01 33° WNW 22:25:01 33° WNW
SJ 16-02 4.3 22:25:18 10° WNW 22:26:51 12° NW 22:28:23 10° NNW
USA 215 4.3 22:24:23 10° ENE 22:28:41 29° ESE 22:28:41 29° ESE
Cosmos 1892 Rocket 4.2 22:26:28 10° NNW 22:30:05 55° NW 22:30:05 55° NW
Meteor 1-24 Rocket 4.0 22:26:24 10° N 22:31:37 53° ENE 22:31:52 53° E
Cosmos 2082 Rocket 3.9 22:28:40 12° W 22:33:01 29° NW 22:37:58 10° NNE
SL-08 R/B 4.4 22:26:48 10° N 22:33:11 79° E 22:34:00 68° SE
CZ-4C R/B 2.0 22:33:51 83° ESE 22:33:51 83° ESE 22:39:57 10° NE
Meteor 2-5 Rocket 3.6 22:28:45 10° N 22:34:20 77° ENE 22:34:30 76° E
Cosmos 1821 Rocket 4.5 22:33:37 10° N 22:39:50 51° ENE 22:41:06 45° ESE
ALOS 2 3.8 22:42:34 35° WNW 22:42:34 35° WNW 22:45:45 10° NNW
SL-16 R/B 3.0 22:36:27 10° NW 22:41:15 39° W 22:41:15 39° W
Cosmos 2237 4.1 22:36:09 10° NNW 22:41:55 89° WSW 22:42:03 86° SSE
Cosmos 2181 Rocket 4.0 22:43:43 58° WSW 22:44:32 65° WNW 22:50:41 10° N
SL-8 Rocket 4.3 22:43:18 10° NNW 22:49:24 51° W 22:50:03 49° WSW
COSMOS 2428 3.2 22:52:21 10° NNW 22:57:57 55° NE 22:59:16 45° E
Cosmos 2360 Rocket 2.4 22:56:45 10° NW 23:01:51 58° W 23:01:51 58° W
Timation 2 Rocket 4.5 23:04:08 48° SE 23:04:37 49° ESE 23:10:55 10° NE
USA 267 3.3 23:00:22 12° ESE 23:06:34 77° NNE 23:13:07 10° WNW
Cosmos 2219 Rocket 2.5 23:04:24 10° NNW 23:09:59 62° ENE 23:10:57 54° E
Cosmos 2333 4.0 23:09:08 10° NNW 23:14:48 89° WSW 23:14:55 86° SSE
SL-16 R/B 3.7 23:12:08 21° ESE 23:15:28 36° ENE 23:21:00 10° N
Cosmos 1626 3.6 23:24:55 10° N 23:27:23 36° NNE 23:27:23 36° NNE
Cosmos 2322 3.8 23:23:27 10° NW 23:28:44 59° W 23:28:44 59° W
COSMOS 2455 2.8 23:23:03 10° NW 23:29:08 84° NE 23:30:13 62° SE
Resurs 1-4 Rocket 3.8 23:25:16 10° NE 23:29:18 22° E 23:30:17 21° ESE
CZ-4B R/B 3.9 23:26:44 10° NNE 23:31:06 47° E 23:31:06 47° E
Aureole 1 Rocket 4.4 23:23:49 10° NNW 23:31:38 54° WSW 23:32:30 51° SW
Cosmos 2237 Rocket 3.2 23:26:58 10° NNW 23:32:24 43° NE 23:35:50 21° ESE
Cosmos 967 Rocket 4.3 23:34:54 69° SSW 23:35:42 83° SE 23:42:05 10° NE
Cosmos 1953 3.7 23:37:20 33° ENE 23:37:20 33° ENE 23:40:16 10° NNE
Cosmos 1455 Rocket 4.4 23:37:40 30° WNW 23:37:40 30° WNW 23:41:06 10° N
SL-16 R/B 4.2 23:35:15 10° NNW 23:39:56 25° NE 23:44:35 10° E
Nadezhda 3 Rocket 3.9 23:39:44 64° SW 23:40:35 74° W 23:46:47 10° N
Cosmos 1190 Rocket 4.2 23:35:35 10° NNW 23:40:55 67° ENE 23:41:48 56° ESE
Cosmos 614 Rocket 4.0 23:40:28 10° NNW 23:45:44 73° ENE 23:46:20 65° ESE
Cosmos 2056 Rocket 4.4 23:45:27 38° ESE 23:45:51 38° ESE 23:50:51 10° NE
Cosmos 1437 Rocket 4.4 23:43:07 10° NNW 23:45:26 28° NW 23:45:26 28° NW
Cosmos 1833 4.4 23:46:42 57° W 23:47:33 65° WNW 23:53:16 10° NNE
Lacrosse 4 Rocket 3.2 23:43:35 10° NW 23:45:17 22° NW 23:45:17 22° NW
H-2A R/B 3.0 23:47:30 39° E 23:47:56 41° ENE 23:51:53 10° N
Cosmos 2333 Rocket 2.1 23:45:13 10° NNW 23:50:53 71° WSW 23:50:58 71° WSW
Cosmos 1758 Rocket 3.8 23:49:59 10° NNW 23:53:44 63° NNW 23:53:44 63° NNW
Cosmos 2322 Rocket 4.4 23:52:24 10° WNW 23:53:33 12° W 23:53:33 12° W
